Flag for Netherlands Weather past 2 weeks in Leiden, Netherlands

Now
57 °F

Clear.


Feels Like: 57 °F
Forecast: 55 / 64 °F
Wind: 3 mph from West

Location: Rotterdam Zestienhoven Airport

Current Time: Jul 30, 2015 at 8:42:11 AM

Latest Report: Jul 30, 2015 at 7:55 AM


Visibility: N/A

Pressure: 29.92 "Hg

Humidity: 82%

Dew point: 52 °F

Location of LeidenLocation

Historic Weather in Leiden — Graph

°F

Leiden temperature yesterday

Maximum temperature yesterday: 63 °F (at 1:55 PM)
Minimum temperature yesterday: 52 °F (at 5:55 AM)
Average temperature yesterday: 58 °F

Past Weeks' High & Low Weather Summary

 TemperatureHumidityPressure
High77 °F (Jul 17, 1:25 PM)100% (Jul 15, 7:25 AM)30.12 "Hg (Jul 15, 7:25 AM)
Low48 °F (Jul 26, 1:25 AM)40% (Jul 23, 2:55 PM)29.42 "Hg (Jul 25, 6:25 AM)
Average64 °F77%29.85 "Hg
* Reported Jul 15 7:25 AM — Jul 30 7:25 AM, Leiden, Weather by CustomWeather, © 2015

Note: Actual official high and low records may vary slightly from our data, if they occured in-between our weather recording intervals... More about our weather records

Advertising

Leiden weather history for previous 24 hours

 ConditionsComfort  
Time TempWeatherWind HumidityBarometerVisibility
7:25 AM
Thu, Jul 30
55 °FClear.3 mph88%29.92 "HgN/A
6:55 AM54 °FClear.3 mph88%29.92 "HgN/A
6:25 AM52 °FPassing clouds.3 mph88%29.92 "HgN/A
5:55 AM50 °FPassing clouds.5 mph94%29.92 "HgN/A
5:25 AM48 °FCool.6 mph94%29.92 "HgN/A
4:55 AM52 °FCool.5 mph88%29.92 "HgN/A
4:25 AM50 °FCool.5 mph94%29.92 "HgN/A
3:55 AM48 °FCool.6 mph94%29.92 "HgN/A
3:25 AM52 °FPassing clouds.5 mph88%29.92 "HgN/A
2:55 AM54 °FPassing clouds.6 mph82%29.92 "HgN/A
2:25 AM54 °FCool.6 mph82%29.92 "HgN/A
1:55 AM54 °FCool.6 mph82%29.92 "HgN/A
1:25 AM54 °FPassing clouds.6 mph82%29.92 "HgN/A
12:55 AM55 °FCool.6 mph77%29.89 "HgN/A
12:25 AM55 °FCool.7 mph82%29.89 "HgN/A
11:55 PM
Wed, Jul 29
57 °FClear.6 mph77%29.89 "HgN/A
11:25 PM57 °FClear.8 mph77%29.89 "HgN/A
10:55 PM57 °FClear.7 mph77%29.89 "HgN/A
10:25 PM57 °FClear.7 mph77%29.89 "HgN/A
9:55 PM57 °FCool.8 mph77%29.89 "HgN/A
9:25 PM57 °FPassing clouds.8 mph77%29.86 "HgN/A
8:55 PM57 °FPassing clouds.9 mph77%29.86 "HgN/A
8:25 PM59 °FScattered clouds.12 mph72%29.86 "HgN/A
7:55 PM61 °FClear.14 mph63%29.86 "HgN/A
7:25 PM61 °FScattered clouds.14 mph68%29.86 "HgN/A
6:55 PM61 °FPassing clouds.16 mph68%29.83 "HgN/A
6:25 PM61 °FPassing clouds.15 mph68%29.83 "HgN/A
5:55 PM61 °FPassing clouds.17 mph68%29.83 "HgN/A
5:25 PM59 °FScattered clouds.16 mph72%29.83 "HgN/A
4:55 PM61 °FPassing clouds.18 mph68%29.80 "HgN/A
4:25 PM63 °FScattered clouds.20 mph64%29.80 "HgN/A
3:55 PM61 °FPassing clouds.18 mph68%29.80 "HgN/A
3:25 PM61 °FScattered clouds.20 mph63%29.77 "HgN/A
2:55 PM61 °FScattered clouds.21 mph68%29.77 "HgN/A
2:25 PM61 °FScattered clouds.18 mph77%29.77 "HgN/A
1:55 PM63 °FScattered clouds.20 mph64%29.74 "HgN/A
1:25 PM61 °FBroken clouds.16 mph68%29.74 "HgN/A
12:55 PM61 °FScattered clouds.20 mph68%29.74 "HgN/A
12:25 PM59 °FScattered clouds.18 mph68%29.74 "HgN/A
11:55 AM59 °FPassing clouds.15 mph68%29.71 "HgN/A
11:25 AM61 °FPartly sunny.18 mph72%29.71 "HgN/A
10:55 AM61 °FBroken clouds.16 mph68%29.71 "HgN/A
10:25 AM61 °FBroken clouds.15 mph72%29.71 "HgN/A
9:55 AM59 °FPassing clouds.13 mph77%29.71 "HgN/A
9:25 AM55 °FPassing clouds.6 mph88%29.71 "HgN/A
8:55 AM52 °FThunderstorms. Broken clouds.8 mph88%29.71 "HgN/A
8:25 AM57 °FThunderstorms. Broken clouds.9 mph88%29.68 "HgN/A
Weather by CustomWeather, © 2015

See weather overviewHow to use our weather pages